Location: Launay
(47.2429°N, 1.5727°E)
Time: 07:11:04
(UTC+00:00)

Cosmos 1833 Rocket - Pass Details

Date: 19 May 2025
Orbit: 831 x 839 km, 71.0° (Epoch: 18 June)

Event Time Altitude Azimuth Distance (km) Brightness Sun altitude
Rises 20:21:11 0° 184° (S) 3,375 5.5 -8.0°
Reaches altitude 10° 20:23:42 10° 178° (S) 2,445 4.7 -8.4°
Maximum altitude 20:28:59 44° 108° (ESE) 1,156 3.0 -9.0°
Drops below altitude 10° 20:34:17 10° 38° (NE) 2,462 5.2 -9.7°
Sets 20:36:50 0° 32° (NNE) 3,401 6.0 -10.0°
